Clarksville, TN

5:21 PM CST on November 23, 2017 (GMT -0600)
Outlaw

Weather History for KCKV - March, 2014

Change the Weather History Date:

Wednesday, March 12, 2014

  Actual Average Record
Temperature  
Mean Temperature 50 °F 48 °F  
Max Temperature 66 °F 59 °F 82 °F (2006)
Min Temperature 34 °F 36 °F 20 °F (1987)
Degree Days  
Heating Degree Days 15    
Month to date heating degree days  
Since 1 July heating degree days  
Cooling Degree Days 0    
Month to date cooling degree days  
Year to date cooling degree days  
Moisture  
Dew Point 40 °F    
Average Humidity 72    
Maximum Humidity 83    
Minimum Humidity 56    
Precipitation  
Precipitation 0.01 in 0.11 in 6.08 in (1975)
Month to date precipitation 1.37  
Year to date precipitation 8.85  
Sea Level Pressure  
Sea Level Pressure 29.75 in    
Wind  
Wind Speed 17 mph (WNW)    
Max Wind Speed 29 mph    
Max Gust Speed 45 mph    
Visibility 10 miles    
Events Rain    
T = Trace of Precipitation, MM = Missing Value Source: NWS Daily Summary

Daily Weather History Graph

Daily Weather History Graph

Search for Another Location

Airport or City:

Trip Planner

Search our weather history database for the weather conditions in past years. The results will help you decide how hot, cold, wet, or windy it might be!

Date:

Astronomy

Mar. 12, 2014 Rise Set
Actual Time 7:04 AM CDT 6:54 PM CDT
Civil Twilight 6:39 AM CDT 7:20 PM CDT
Nautical Twilight 6:09 AM CDT 7:50 PM CDT
Astronomical Twilight 5:39 AM CDT 8:20 PM CDT
Moon 3:29 PM CDT (3/12) 4:31 AM CDT (3/12)
Length of Visible Light 12h 41m
Length of Day
11h 49m
Waxing Gibbous, 85% of the Moon is Illuminated
Mar 12
Waxing Gibbous
Mar 16
Full
Mar 23
Last Quarter
Mar 30
New
Apr 7
First Quarter

Hourly Weather History & Observations

Time (CDT) Temp. Windchill Dew Point Humidity Pressure Visibility Wind Dir Wind Speed Gust Speed Precip Events Conditions
12:52 AM 66.0 °F - 55.0 °F 68% 29.51 in 10.0 mi SW 15.0 mph 21.9 mph N/A   Mostly Cloudy
1:52 AM 64.9 °F - 55.9 °F 73% 29.49 in 10.0 mi SW 16.1 mph 23.0 mph N/A   Overcast
2:40 AM 64.4 °F - 55.4 °F 73% 29.50 in 10.0 mi SW 12.7 mph 23.0 mph 0.00 in   Overcast
2:52 AM 64.9 °F - 55.9 °F 73% 29.48 in 10.0 mi SSW 15.0 mph 23.0 mph 0.00 in   Overcast
3:52 AM 64.0 °F - 57.0 °F 78% 29.46 in 10.0 mi SW 13.8 mph 21.9 mph 0.00 in   Overcast
4:26 AM 62.6 °F - 55.4 °F 77% 29.46 in 10.0 mi SW 11.5 mph 20.7 mph N/A   Mostly Cloudy
4:52 AM 63.0 °F - 55.9 °F 78% 29.43 in 10.0 mi SSW 12.7 mph 21.9 mph N/A   Partly Cloudy
5:12 AM 64.4 °F - 57.2 °F 77% 29.45 in 10.0 mi SW 11.5 mph 20.7 mph N/A   Mostly Cloudy
5:52 AM 63.0 °F - 57.0 °F 81% 29.43 in 10.0 mi SW 13.8 mph 26.5 mph 0.00 in   Overcast
6:41 AM 53.6 °F - 48.2 °F 82% 29.51 in 8.0 mi NW 27.6 mph 44.9 mph 0.01 in Rain Light Rain
6:49 AM 51.8 °F - 46.4 °F 82% 29.52 in 10.0 mi WNW 28.8 mph 42.6 mph 0.01 in Rain Light Rain
6:52 AM 50.0 °F - 45.0 °F 83% 29.52 in 10.0 mi NW 24.2 mph 42.6 mph 0.01 in   Overcast
7:52 AM 44.1 °F 34.8 °F 39.0 °F 82% 29.61 in 10.0 mi NW 25.3 mph 36.8 mph N/A   Overcast
8:52 AM 42.1 °F 31.7 °F 36.0 °F 79% 29.68 in 10.0 mi NW 27.6 mph 40.3 mph N/A   Overcast
9:01 AM 42.8 °F 34.0 °F 35.6 °F 76% 29.70 in 10.0 mi NW 20.7 mph 40.3 mph N/A   Overcast
9:52 AM 41.0 °F 31.1 °F 34.0 °F 76% 29.75 in 10.0 mi NW 23.0 mph 35.7 mph N/A   Overcast
10:52 AM 42.1 °F 32.1 °F 34.0 °F 73% 29.79 in 10.0 mi NNW 25.3 mph 35.7 mph N/A   Overcast
11:52 AM 42.1 °F 31.9 °F 33.1 °F 70% 29.84 in 10.0 mi NNW 26.5 mph 38.0 mph N/A   Overcast
12:52 PM 43.0 °F 34.0 °F 32.0 °F 65% 29.87 in 10.0 mi NW 21.9 mph 32.2 mph N/A   Overcast
1:24 PM 44.6 °F 36.1 °F 32.0 °F 61% 29.89 in 10.0 mi NNW 21.9 mph 29.9 mph N/A   Overcast
1:52 PM 45.0 °F 36.4 °F 30.9 °F 58% 29.88 in 10.0 mi NW 23.0 mph 33.4 mph N/A   Overcast
2:52 PM 44.1 °F 34.4 °F 30.0 °F 58% 29.91 in 10.0 mi NNW 27.6 mph 33.4 mph N/A   Overcast
3:52 PM 43.0 °F 34.2 °F 28.0 °F 56% 29.95 in 10.0 mi NNW 20.7 mph 34.5 mph N/A   Overcast
4:52 PM 42.1 °F 33.6 °F 28.0 °F 58% 29.98 in 10.0 mi NNW 18.4 mph 28.8 mph N/A   Overcast
5:52 PM 39.9 °F 31.1 °F 28.0 °F 63% 30.01 in 10.0 mi NNW 17.3 mph - N/A   Overcast
6:52 PM 39.0 °F 31.4 °F 28.9 °F 67% 30.04 in 10.0 mi NNW 12.7 mph - N/A   Partly Cloudy
7:52 PM 34.0 °F 27.2 °F 28.0 °F 79% 30.07 in 10.0 mi NNW 8.1 mph - N/A   Clear
8:52 PM 36.0 °F 30.3 °F 28.0 °F 73% 30.09 in 10.0 mi NNW 6.9 mph - N/A   Overcast
9:52 PM 35.1 °F 29.3 °F 27.0 °F 72% 30.11 in 10.0 mi North 6.9 mph - N/A   Mostly Cloudy
10:52 PM 35.1 °F 30.1 °F 28.0 °F 76% 30.13 in 10.0 mi NNW 5.8 mph - N/A   Mostly Cloudy
11:52 PM 34.0 °F 26.0 °F 24.1 °F 67% 30.13 in 10.0 mi NNW 10.4 mph - N/A   Clear